Concordia, KS

8:36 PM CST on November 14, 2019 (GMT -0600)
Blosser Municipal

Weather History for KCNK - September, 2019

Change the Weather History Date:

Wednesday, September 11, 2019

  Actual Average Record
Temperature  
Mean Temperature 83 °F 70 °F  
Max Temperature 91 °F 82 °F 102 °F (1956)
Min Temperature 75 °F 58 °F 40 °F (1940)
Degree Days  
Heating Degree Days 0 1  
Month to date heating degree days 0 9  
Since 1 July heating degree days 0 12  
Cooling Degree Days 18 6  
Month to date cooling degree days 150 86  
Year to date cooling degree days 1427 1252  
Growing Degree Days 33 (Base 50)    
Moisture  
Dew Point 68 °F    
Average Humidity 64    
Maximum Humidity 79    
Minimum Humidity 49    
Precipitation  
Precipitation 0.00 in 0.10 in 2.37 in (2008)
Month to date precipitation 0.01 1.06  
Year to date precipitation 28.85 22.16  
Snow  
Snow 0.00 in 0.00 in T in (1945)
Month to date snowfall 0.0 0.0  
Year to date snowfall 32.3 13.7  
Since 1 July snowfall 0.0 0.0  
Snow Depth 0.00 in    
Sea Level Pressure  
Sea Level Pressure 29.88 in    
Wind  
Wind Speed 18 mph (South)    
Max Wind Speed 25 mph    
Max Gust Speed 36 mph    
Visibility 10 miles    
Events      
T = Trace of Precipitation, MM = Missing Value Source: NWS Daily Summary

Daily Weather History Graph

Daily Weather History Graph

Search for Another Location

Airport or City:

Astronomy

Sep. 11, 2019 Rise Set
Actual Time 7:07 AM CDT 7:45 PM CDT
Civil Twilight 6:40 AM CDT 8:13 PM CDT
Nautical Twilight 6:08 AM CDT 8:44 PM CDT
Astronomical Twilight 5:35 AM CDT 9:17 PM CDT
Moon 6:58 PM CDT (9/11) 4:32 AM CDT (9/11)
Length of Visible Light 13h 32m
Length of Day
12h 38m
Waxing Gibbous, 95% of the Moon is Illuminated
Sep 11
Waxing Gibbous
Sep 13
Full
Sep 21
Last Quarter
Sep 28
New
Oct 5
First Quarter

Hourly Weather History & Observations

Time (CDT) Temp. Heat Index Dew Point Humidity Pressure Visibility Wind Dir Wind Speed Gust Speed Precip Events Conditions
12:55 AM 78.1 °F - 70.0 °F 76% 29.92 in 10.0 mi South 17.3 mph 25.3 mph N/A   Mostly Cloudy
1:55 AM 79.0 °F - 69.1 °F 72% 29.92 in 10.0 mi South 16.1 mph 26.5 mph N/A   Partly Cloudy
2:55 AM 78.1 °F - 68.0 °F 71% 29.91 in 10.0 mi South 18.4 mph 28.8 mph N/A   Clear
3:55 AM 77.0 °F - 68.0 °F 74% 29.90 in 10.0 mi South 15.0 mph 26.5 mph N/A   Clear
4:55 AM 75.9 °F - 68.0 °F 76% 29.90 in 10.0 mi South 17.3 mph 26.5 mph N/A   Clear
5:55 AM 75.9 °F - 66.9 °F 74% 29.90 in 10.0 mi South 20.7 mph 28.8 mph N/A   Clear
6:55 AM 75.0 °F - 66.9 °F 76% 29.89 in 10.0 mi South 20.7 mph 29.9 mph N/A   Clear
7:55 AM 75.9 °F - 66.9 °F 74% 29.91 in 10.0 mi South 19.6 mph 32.2 mph N/A   Clear
8:55 AM 77.0 °F - 68.0 °F 74% 29.92 in 10.0 mi South 17.3 mph 25.3 mph N/A   Clear
9:55 AM 81.0 °F 83.8 °F 68.0 °F 65% 29.92 in 10.0 mi SSW 21.9 mph 31.1 mph N/A   Clear
10:55 AM 82.0 °F 85.5 °F 69.1 °F 65% 29.93 in 10.0 mi South 11.5 mph 25.3 mph N/A   Clear
12:55 PM 88.0 °F 93.8 °F 71.1 °F 57% 29.91 in 10.0 mi South 17.3 mph 24.2 mph N/A   Clear
1:55 PM 90.0 °F 96.9 °F 72.0 °F 55% 29.90 in 10.0 mi South 13.8 mph 25.3 mph N/A   Clear
2:55 PM 90.0 °F 94.5 °F 69.1 °F 50% 29.88 in 10.0 mi South 24.2 mph 34.5 mph N/A   Clear
3:55 PM 91.0 °F 95.6 °F 69.1 °F 48% 29.86 in 10.0 mi South 17.3 mph 35.7 mph N/A   Clear
4:55 PM 91.0 °F 94.3 °F 66.9 °F 45% 29.84 in 10.0 mi South 21.9 mph 34.5 mph N/A   Clear
5:55 PM 89.1 °F 92.1 °F 66.9 °F 48% 29.84 in 10.0 mi South 19.6 mph 31.1 mph N/A   Clear
6:55 PM 87.1 °F 89.9 °F 66.9 °F 51% 29.84 in 10.0 mi South 15.0 mph 24.2 mph N/A   Clear
7:55 PM 81.0 °F 83.3 °F 66.9 °F 62% 29.84 in 9.0 mi SSE 9.2 mph - N/A   Clear
8:55 PM 81.0 °F 83.3 °F 66.9 °F 62% 29.84 in 10.0 mi SSE 11.5 mph - N/A   Clear
9:55 PM 80.1 °F 82.3 °F 66.9 °F 64% 29.84 in 10.0 mi SSE 16.1 mph 27.6 mph N/A   Clear
10:55 PM 79.0 °F - 68.0 °F 69% 29.83 in 10.0 mi South 18.4 mph 26.5 mph N/A   Clear
11:55 PM 79.0 °F - 66.9 °F 66% 29.82 in 10.0 mi South 19.6 mph 29.9 mph N/A   Clear